Voltar ao catálogo

FENGYUN 1C DEB

AtivoSSO
NORAD 29807·DEBRIS·🇨🇳 China

Lançado May 10, 1999 de Taiyuan Satellite Launch Center

Loading…

Próximas Passagens (próximas 24 horas)

TLE

AtualizadoSource: Space-Track

Época: Sep 14, 2026, 10:13 UTC

1 29807U 99025CZ  26257.42612175  .00000268  00000-0  17504-3 0  9997
2 29807  98.7600 259.2050 0078584 272.7561  86.4616 14.08866505  9725

Acompanhe FENGYUN 1C DEB em tempo real com AllMySat

Download on the App Store